Terminal Aerodrome Forecast
Issued by NWS Shreveport, LA

Home | Current Version | Previous Version | Text Only | Print | Product List | Glossary On
Versions: 1 2 3 4 5 6 7 8 9 10 11 12 13 14 15
000
FTUS44 KSHV 211100
TAFSHV
TAF
KSHV 211136Z 2112/2212 23004KT P6SM BKN090
     FM211600 20008KT P6SM VCSH BKN050 BKN100 OVC250
     FM211900 21010KT P6SM VCTS SCT050CB BKN120 BKN250
     FM220300 27007KT 5SM -TSRA BKN050CB OVC100
     FM221000 30005KT 4SM BR OVC015=

USA.gov is the U.S. government's official web portal to all federal, state and local government web resources and services.